Location: Niedergestelen
(46.3129°N, 7.7822°E)
Time: 06:00:35
(UTC+00:00)

Cosmos 1500 - Pass Details

Date: 01 December 2020
Orbit: 498 x 518 km, 82.5° (Epoch: 18 January)

Event Time Altitude Azimuth Distance (km) Brightness Sun altitude
Rises 17:00:42 0° 360° (N) 2,637 6.6 -12.8°
Reaches altitude 10° 17:03:02 10° 11° (N) 1,749 5.6 -13.2°
Maximum altitude 17:06:27 30° 74° (ENE) 946 3.9 -13.7°
Drops below altitude 10° 17:09:51 10° 137° (SE) 1,744 5.6 -14.3°
Sets 17:12:10 0° 148° (SSE) 2,628 6.6 -14.7°
